637  
ASUS42 KCHS 140827  
RWRCHS  
 
REGIONAL WEATHER ROUNDUP  
NATIONAL WEATHER SERVICE CHARLESTON SC  
400 AM EDT FRI AUG 14 2020  
 
NOTE: "FAIR" INDICATES FEW OR NO CLOUDS BELOW 12,000 FEET WITH NO  
SIGNIFICANT WEATHER AND/OR S TO VISIBILITY
.  
 
NOT ALL STATIONS ARE QUALITY CONTROLLED. USE DATA WITH CAUTION,  
ESPECIALLY DEWPOINT OBSERVATIONS.  
 
SCZ027-030-031-034>040-042>050-140900-   
..SOUTHEAST SOUTH CAROLINA
 
 
 
CITY SKY/WX TMP DP RH WIND PRES REMARKS
 
N CHARLESTON MOCLDY 75 73 93 CALM 29.96F  
WATERFRONT PRK N/A 80 77 90 S6 29.81S  
MOUNT PLEASANT CLOUDY 75 75 100 CALM 29.95F  
JOHNS ISLAND PTSUNNY 77 75 94 CALM 29.95F  
PINOPOLIS N/A 73 73 100 CALM 29.91R  
MONCKS CORNER CLOUDY 72 72 100 CALM 29.97F  
SUMMERVILLE CLOUDY 73 73 100 CALM 29.96F  
BEAUFORT MCAS MOCLDY 77 75 93 CALM 29.96S  
BEAUFORT ARPT FAIR 77 75 94 SW8 29.96S  
HILTON HEAD IS N/A N/A N/A N/A MISG N/A  
WALTERBORO NOT AVBL  
ALLENDALE PTSUNNY 73 73 100 CALM 29.96S  
   
..SOUTHERN MIDLANDS AND PEE DEE
 
 
 
CITY SKY/WX TMP DP RH WIND PRES REMARKS
 
GEORGETOWN LGT RAIN 72 72 100 CALM 29.98F  
KINGSTREE CLOUDY 72 70 94 CALM 29.98S FOG  
ORANGEBURG CLOUDY 73 73 100 CALM 29.98F  
BARNWELL CLOUDY 73 73 100 CALM 29.97F  
AIKEN PTSUNNY 74 73 95 S5 29.99S  
MANNING FAIR 72 72 100 CALM 29.97F FOG  
COLUMBIA CLOUDY 74 71 91 CALM 29.97S  
SUMTER MOCLDY 74 73 95 S2 29.97F  
FLORENCE CLOUDY 73 72 96 SW6 29.96F  
MYRTLE BEACH CLOUDY 73 73 100 CALM 29.97S  
N MYRTLE BEACH CLOUDY 75 73 93 CALM 29.96S  
 

 
 
GAZ063-065-086>088-099>101-113>116-118-119-134>141-150-140900-   
..SOUTHEAST GEORGIA
 
 
 
CITY SKY/WX TMP DP RH WIND PRES REMARKS
 
SAVANNAH ARPT PTCLDY 78 75 90 SW5 29.97S  
HUNTER AAF PTCLDY 79 75 89 VRB7 29.97S  
FORT STEWART NOT AVBL  
STATESBORO MOCLDY 75 72 89 CALM 29.97S  
SYLVANIA MOSUNNY 73 73 97 CALM 29.98F FOG  
CLAXTON FAIR 76 74 95 CALM 29.97S  
MILLEN CLOUDY 74 73 96 N7 29.97S  
METTER FAIR 74 73 97 CALM 29.97S  
REIDSVILLE NOT AVBL  
   
..CSRA, CENTRAL AND FAR SOUTHEAST GEORGIA
 
 
 
CITY SKY/WX TMP DP RH WIND PRES REMARKS
 
THOMSON MOCLDY 74 74 98 CALM 29.97F  
AUGUSTA-BUSH CLOUDY 74 72 93 S5 29.96S  
AUGUSTA-DANIEL CLOUDY 78 71 79 N3 29.97F  
SWAINSBORO PTSUNNY 73 73 100 CALM 29.98S  
VIDALIA PTCLDY 75 72 88 CALM 29.97F FOG  
EASTMAN PTSUNNY 73 73 98 CALM 29.99F  
HAZLEHURST PTSUNNY N/A N/A N/A CALM 29.97S  
ALMA CLEAR 75 72 90 S3 29.97F  
WAYCROSS CLEAR 76 71 85 CALM 29.98S  
JESUP FOG 77 73 88 CALM 29.98S VSB 3/4  
BAXLEY FAIR N/A N/A N/A S3 29.98R  
BRUNSWICK MOCLDY 75 73 93 SW7 29.98S  
SAINT SIMONS PTCLDY 79 75 87 SW12 29.98R  
 

 
 
SCZ027-028-034-036>038-045-046-048>050-GAZ119-141-140900-   
..LAKE AND SUPPLEMENTAL COASTAL OBSERVATIONS
 
 
 
STATION/POSITION TIME TEMP WIND PRES WAVE SWELL
 
AIR SEA DIR/SP/G HT/PER HT/PER/DIR  
(UTC) (F) (DEG/KT/KT) (MB) (FT/S) (FT/S/D)  
WINYAH BAY 0745 75 290/ 2 1014.0S  
LAKE MURRAY 0820 74 CALM / 4 N/A  
CHRLSTN HARBOR 0748 81 87 170/ 6/ 7 1014.7F  
ACE BASIN NERRS 0745 77 CALM 1015.0S  
FORT PULASKI 0748 80 86 250/ 5/ 7 1015.2S  
SAPELO ISLAND 0800 78 220/ 10 1015.0  
 

 
 
ANZ835-935-AMZ111-154-330-350-352-354-370-450-454-472-140900-   
..C-MAN AND BUOY OBSERVATIONS
 
 
 
STATION/POSITION TIME TEMP WIND PRES WAVE SWELL
 
AIR SEA DIR/SP/G HT/PER HT/PER/DIR  
(UTC) (F) (DEG/KT/KT) (MB) (FT/S) (FT/S/D)  
BUOY 41004 0810 81 83 220/ 8/ 10 1014.7  
BUOY 41008 0750 84 85 230/ 16/ 17 1014.5R 2/ 4  
FOLLY BEACH CMAN 0800 82 190/ 10/ 11 1014.9F  
CAPERS NEARSHORE 0808 82 85 200/ 12/ 14 1014.3F  
FRIPP NEARSHORE 0808 84 85 260/ 14/ 19 1014.2R  
 
 
STATION/POSITION TIME TEMP WIND PRES WAVE SWELL
 
AIR SEA DIR/SP/G HT/PER HT/PER/DIR  
(UTC) (F) (DEG/KT/KT) (MB) (FT/S) (FT/S/D)  
5E ST. MARYS GA 0800 82 85 N/A 2/ 4  
FRYING PAN BUOY 0810 81 82 260/ 12/ 14 1013.6  
BUOY 41025 0810 80 83 240/ 16/ 19 N/A  
CAPE LOOKOUT NC 0800 80 260/ 12/ 15 1013.5R  
BUOY 41002 0810 84 85 210/ 14/ 17 1015.9  
BUOY 41010 0810 84 85 170/ 10/ 12 1015.8  
ST AUGUSTINE FL 0800 78 84 230/ 1/ 2 1016.1S  
 

 
 
 
CLICK HERE TO GO TO PREVIOUS BULLETINS.

The Nexlab SC Page
The Nexlab GA Page Main Text Page